Location: Leuk
(46.3174°N, 7.6341°E)
Time: 19:14:32
(UTC+00:00)

ERS-2 - Pass Details

Date: 09 March 2021
Orbit: 492 x 496 km, 98.6° (Epoch: 20 April)

Event Time Altitude Azimuth Distance (km) Brightness Sun altitude
Rises 04:48:35 0° 147° (SSE) 2,564 6.1 -12.1°
Reaches altitude 10° 04:50:43 10° 140° (SE) 1,687 5.3 -11.7°
Maximum altitude 04:54:08 40° 70° (ENE) 744 3.6 -11.1°
Drops below altitude 10° 04:57:34 10° 360° (N) 1,704 4.9 -10.5°
Sets 04:59:44 0° 353° (N) 2,593 5.7 -10.1°
